Время (UTC), дата Ветер
(°,м/с) 
Видим.   Явления Облачность Т
(°С)
Тd
(°С)
f(%) Тe
(°С)
Pmin
(гПа)
dP
(гПа)
Po
(мм)
O2
(г/м3)
Тmin Tmax R s Состояние
почвы
00 21.01.15 080 (В) 10 км    9/9 1000 м 
[Sc]
+6.7 +2.8 76 +8  1022.3  0.7  764  300           
03 21.01.15 080 (В) 10 км    10/8 1000 м средняя 
[Sc|Ac trans]
+5.9 +2.7 80 +7  1022.1  -0.2  764  301  +5.9         
06 21.01.15 060 (СВ) 10 км    9/3 1000 м средняя 
[Sc|Ac cast]
+6.2 +2.7 78 +7  1022.6  0.5  764  301  +5.8         
09 21.01.15 150 (ЮВ) 10 км    9/9 1000 м 
[Sc]
+10.3 +3.1 61 +11  1022.4  0.1  764  296           
12 21.01.15 170 (Ю) 10 км    10/10 600 м кучево-дожд. 
[Cb cap]
+11.5 +1.1 49 +13  1021.6  -0.8  764  295           
15 21.01.15 120 (ЮВ) 10 км  в посл. час ливневой дождь  10/10 600 м кучево-дожд. 
[Cb cap]
+9.4 +4.2 70 +10  1021.6  0.1  763  297    +12.2  0.0     
18 21.01.15 060 (СВ) 10 км  {ливн. осадки}  9/9 1000 м 
[Sc diur, vesp]
+8.1 +5.6 84 +9  1021.3  -0.3  763  298           
21 21.01.15 030 (СВ) 10 км    9/9 1000 м 
[Sc]
+7 +4.5 84 +8  1021.8  0.5  764  299           
00 22.01.15 030 (СВ) 10 км    9/3 1000 м средняя 
[Sc|Ac trans]
+5.8 +4.2 89 +7  1022.3  0.4  764  301           
03 22.01.15 030 (СВ) 2000 м  дымка  9/9 300 м 
[St]
+4.9 +3.7 92 +6  1023.1  0.8  764  302  +4.8    0.3     
06 22.01.15 060 (СВ) 1000 м  дымка  10/10 300 м 
[St]
+3.8 +2.6 92 +5  1024.7  1.6  766  304  +3.7         
09 22.01.15 040 (СВ) 4000 м  дымка  8/8 300 м 
[St]
+6 +3.1 82 +7  1025.6  0.9  766  302           
12 22.01.15 060 (СВ) 10 км    6/0 средняя, верхняя 
[Ac trans|Ci fib]
+9.3 +3.9 69 +10  1025.2  -0.3  766  298           
15 22.01.15 тихо ()   10 км    4/0 верхняя 
[Ci fib]
+6.7 +3.1 78 +7  1026.2  0.9  767  301    +9.8       
18 22.01.15 тихо ()   4000 м  дымка  5/0 верхняя 
[Ci fib]
+4.7 +3.1 89 +5  1026.8  0.5  767  303           
21 22.01.15 030 (СВ) 4000 м  дымка  ясно 
+3.9 +2.6 91 +5  1027.2  0.4  768  305           
00 23.01.15 080 (В) 4000 м  дымка  9/6 1000 м средняя 
[Sc|Ac trans]
+2.5 +1.2 91 +3  1027.5  0.3  768  306           
03 23.01.15 070 (В) 0500 м  туман  ?/?  
+2.6 +1.7 94 +2  1027.5  768  306  +2.2         
06 23.01.15 070 (В) 2000 м  дымка{туман}  3/0 средняя 
[Ac cast]
+2.8 +1 88 +2  1028.1  0.6  768  306  +2.2         
09 23.01.15 060 (СВ) 10 км    3/0 верхняя 
[Ci fib]
+7.5 +2.7 72 +7  1027.8  -0.3  768  301           
12 23.01.15 060 (СВ) 10 км    8/1 1000 м верхняя 
[Sc|Ci fib]
+8.5 +3.9 73 +9  1026.2  -1.5  767  299           
15 23.01.15 030 (СВ) 10 км    8/0 средняя, верхняя 
[Ac trans|Ci fib]
+4.8 +2.4 84 +4  1027.1  0.8  767  304    +9.2       
18 23.01.15 070 (В) 10 км    3/3 300 м 
[St]
+3.3 +0.5 82 +2  1026.4  -0.6  767  305           
21 23.01.15 050 (СВ) 10 км    3/3 300 м 
[St]
+2 -0.2 85 +1  1025.9  -0.6  767  307           
00 24.01.15 060 (СВ) 10 км    ясно 
+1.5 -0.8 85 1025  -0.9  766  307           
03 24.01.15 060 (СВ) 10 км    ясно 
+1.2 -1.2 84 1023.5  -1.4  765  307  +1.2         
06 24.01.15 070 (В) 3-10{10}  10 км    ясно 
+1.7 -1.6 79 1022.6  -0.9  764  306  +0.9         
09 24.01.15 060 (СВ) 4{10}  10 км    5/0 верхняя 
[Cc]
+4.8 -1.5 64 +3  1021.6  -0.9  763  302           
12 24.01.15 080 (В) 10 км    9/0 верхняя 
[Cc]
+5.6 -1.3 61 +4  1019.9  -1.6  762  301           
15 24.01.15 070 (В) 5-11{12}  10 км    10/0 средняя, верхняя 
[Ac trans|Ci fib]
+2.5 -2.1 72 1019.7  -0.3  762  304    +6       
18 24.01.15 070 (В) 4{11}  10 км    ясно 
+1.6 -2.5 74 -1  1019.3  -0.5  762  305           
21 24.01.15 070 (В) 10 км    ясно 
+1.2 -2.5 76 +1  1018.9  -0.3  761  306           
00 25.01.15 070 (В) 10 км    ясно 
+0.9 -2.8 76 -1  1018.3  -0.6  761  306           
03 25.01.15 090 (В) 10 км    ясно 
+1.3 -2.7 75 1018.3  -0.1  761  305  +0.8         
06 25.01.15 090 (В) 10 км    9/9 600 м кучево-дожд. 
[Cb cap]
+2.1 -2.8 70 +1  1018.8  0.6  761  305           
09 25.01.15 070 (В) 10 км    10/6 1000 м средняя 
[Sc|Ac trans]
+4.6 -2.1 62 +3  1019.3  0.4  762  302           
12 25.01.15 070 (В) 10 км    10/10 600 м кучево-дожд. 
[Cb cap]
+6.7 -0.5 60 +6  1018.5  0.4  761  299           
15 25.01.15 080 (В) 10 км    10/10 600 м кучево-дожд. 
[Cb cap]
+6.6 -0.2 62 +6  1019.7  1.1  762  300    +6.9       
18 25.01.15 060 (СВ) 10 км    10/10 600 м кучево-дожд. 
[Cb cap]
+4.8 -0.6 68 +4  1019.7  0.1  762  302           
21 25.01.15 080 (В) 10 км    10/10 600 м 
[Sc]
+3.8 -0.6 73 +3  1020.2  0.4  762  303           
00 26.01.15 060 (СВ) 4000 м  слаб. ливневой дождь  10/10 600 м кучево-дожд. 
[Cb cap]
+3.2 -0 80 +2  1019.8  -0.4  762  303           
03 26.01.15 080 (В) 4000 м  слаб. ливневой дождь  10/10 600 м кучево-дожд. 
[Cb cap]
+2.8 +0.5 85 +1  1019.7  0.1  762  304  +2.7       
06 26.01.15 080 (В) 10 км  {ливн. осадки}  10/8 1000 м кучево-дожд., средняя 
[Cb cap|Ac und]
+3 +0 81 +2  1021.1  1.4  763  304           
09 26.01.15 060 (СВ) 10 км  {ливн. осадки}  10/5 1000 м кучево-дожд., средняя, верхняя 
[Cb cap|Ac trans|Ci fib]
+3.7 +1.8 87 +3  1020.5  -0.6  763  303           
12 26.01.15 060 (СВ) 10 км  {ливн. осадки}  8/3 1000 м кучево-дожд., средняя, верхняя 
[Cb cap|Ac trans|Ci fib]
+6.9 +3.3 78 +7  1019.5  -0.9  762  299           
15 26.01.15 070 (В) 10 км  в посл. час ливневой дождь  10/5 600 м кучево-дожд., верхняя 
[Cb cap|Ci fib]
+5.9 +2.7 80 +6  1020.2  0.7  762  300    +7.3     
18 26.01.15 060 (СВ) 10 км  {ливн. осадки}  9/6 1000 м кучево-дожд., средняя 
[Cb cap|Ac trans]
+5 +2.8 86 +5  1020.7  0.5  763  301           
21 26.01.15 030 (СВ) 10 км    8/8 300 м кучево-дожд. 
[Cb cap]
+3.8 +2.3 90 +5  1021.1  0.3  763  303           
00 27.01.15 060 (СВ) 10 км    10/10 600 м кучево-дожд. 
[Cb cap]
+2.5 +1.1 90 +3  1021.3  0.2  763  305           
03 27.01.15 080 (В) 10 км    3/3 1000 м кучево-дожд. 
[Cb cap]
+1.5 +0.2 91 +2  1021.4  -0.1  763  306  +1.5         
06 27.01.15 070 (В) 10 км    3/3 300 м 
[St]
+1.6 +0.2 91 +2  1021.5  0.1  763  306  +0.9         
09 27.01.15 050 (СВ) 10 км    9/9 1000 м 
[Sc]
+6.1 +2.4 77 +7  1021.4  763  300           
12 27.01.15 060 (СВ) 10 км    10/0 средняя, верхняя 
[Ac trans|Ci fib]
+9.6 +4.5 71 +10  1019.6  -1.7  762  296           
15 27.01.15 050 (СВ) 10 км    5/0 средняя, верхняя 
[Ac trans|Ci fib]
+7.6 +4.1 78 +9  1019.7  762  298    +10.1       
18 27.01.15 060 (СВ) 10 км    ясно 
+4.9 +2.9 87 +6  1019.3  -0.5  762  301           
21 27.01.15 060 (СВ) 10 км    ясно 
+3.1 +1.7 90 +3  1017.5  -1.7  760  303           
00 28.01.15 080 (В) 4000 м  дымка  ясно 
+2.3 +1 91 +3  1015.8  -1.7  759  303           
03 28.01.15 070 (В) 4000 м  дымка  10/3 300 м верхняя 
[St|Ci fib]
+0.9 -0.2 92 +2  1014.4  -1.4  758  304  +0.9         
06 28.01.15 070 (В) 2000 м  в посл. час туман  10/10 200 м 
[St]
+2.5 +1.5 93 +2  1013.7  -0.7  758  302  +0.8         
09 28.01.15 080 (В) 10 км    10/3 600 м средняя 
[Sc|As op]
+5.4 +2.2 80 +5  1012.4  -1.3  757  299           
12 28.01.15 080 (В) 10 км    9/3 1000 м средняя, верхняя 
[Sc|Ac trans|Ci fib]
+7.6 +2.9 72 +7  1010.7  -1.7  755  296           
15 28.01.15 080 (В) 10 км    10/4 600 м средняя, верхняя 
[Sc|Ac trans|Ci fib]
+5.8 +1.5 74 +5  1011.2  0.5  756  298    +7.8       
18 28.01.15 060 (СВ) 10 км    10/10 1000 м 
[Sc]
+4.3 +0.9 79 +4  1010.8  -0.4  755  299           
21 28.01.15 080 (В) 4000 м  слаб. ливневой дождь  10/10 600 м кучево-дожд. 
[Cb cap]
+3.6 +1.3 85 +2  1010.5  -0.2  755  300           
00 29.01.15 080 (В) 10 км  {ливн. осадки}  10/4 600 м средняя 
[Sc diur, vesp|Ac trans]
+3.1 +1.6 90 +3  1009.8  -0.8  755  300           
03 29.01.15 090 (В) 10 км  в посл. час ливневой дождь  8/8 600 м кучево-дожд. 
[Cb cap]
+3 +1.7 91 +2  1009.8  755  300  +3       
06 29.01.15 тихо ()   4000 м  слаб. ливневой дождь  10/10 600 м кучево-дожд. 
[Cb cap]
+3.9 +2.7 92 +4  1010.6  0.9  755  300  +3         
09 29.01.15 150 (ЮВ) 10 км  {ливн. осадки}  9/5 1000 м кучево-дожд., средняя 
[Cb cap|Ac trans]
+6.9 +5.2 89 +8  1010.8  0.2  755  296           
12 29.01.15 150 (ЮВ) 10 км  {ливн. осадки}  8/4 1000 м кучево-дожд., средняя 
[Cb cap|Ac trans]
+8.9 +5.9 81 +9  1010  -0.8  755  294           
15 29.01.15 160 (Ю) 10 км    8/8 1000 м кучево-дожд. 
[Cb cap]
+9 +4.9 76 +9  1011  0.9  755  294    +9.6     
18 29.01.15 190 (Ю) 10 км  в посл. час ливневой дождь  9/8 600 м кучево-дожд., средняя 
[Cb cap|Ac trans]
+7.8 +4.4 79 +8  1011.9  0.9  756  296           
21 29.01.15 220 (ЮЗ) 10 км    6/6 300 м 
[St]
+7.9 +3.7 75 +8  1012.4  0.5  757  296           
00 30.01.15 240 (ЮЗ) 10 км    3/3 1000 м 
[Sc]
+7.1 +3.4 77 +8  1012.3  0.1  756  297           
03 30.01.15 070 (В) 4000 м  дымка  10/3 1000 м средняя 
[Sc|Ac und]
+4.9 +3 87 +6  1012  -0.3  756  299  +3.6    0.0     
06 30.01.15 100 (В) 10 км    10/10 1000 м 
[Sc]
+5.9 +3 82 +6  1012.9  0.9  757  298           
09 30.01.15 080 (В) 10 км    9/8 1000 м средняя 
[Sc|Ac trans]
+8.2 +2.9 69 +9  1012.2  -0.6  756  295           
12 30.01.15 080 (В) 10 км    10/5 1000 м средняя 
[Sc|Ac und]
+10.6 +3.7 62 +12  1010.5  -1.6  755  292           
15 30.01.15 100 (В) 10 км    6/0 средняя, верхняя 
[Ac trans|Ci fib]
+9.4 +4.4 71 +10  1010.3  -0.2  755  293    +11.3       
18 30.01.15 080 (В) 10 км    3/1 1000 м средняя, верхняя 
[Sc|Ac trans|Ci fib]
+7 +3 76 +8  1010.6  0.2  755  296           
21 30.01.15 090 (В) 10 км    3/0 средняя, верхняя 
[Ac trans|Ci fib]
+4.5 +1.8 83 +5  1010.6  0.1  755  299           
00 31.01.15 090 (В) 10 км    1/0 средняя 
[Ac trans]
+3.8 +0.2 77 +5  1010.3  -0.2  755  300           
03 31.01.15 070 (В) 10 км    ясно 
+4.5 -1.2 66 +4  1009.6  -0.7  754  299  +3.3         
06 31.01.15 130 (ЮВ) 10 км    10/1 1000 м средняя, верхняя 
[Sc|Ac trans|Ci fib]
+13.3 -5.2 27 +13  1009.1  -0.4  754  290           
09 31.01.15 090 (В) 10 км    10/5 1000 м кучево-дожд., средняя, верхняя 
[Cb cap|Ac trans|Ci fib]
+11.8 -1 41 +13  1008  -1.1  753  291           
12 31.01.15 110 (В) 10 км    10/8 1000 м средняя 
[Sc|Ac und]
+11.1 +2.7 56 +12  1007  -1  753  291           
15 31.01.15 160 (Ю) 10 км    10/8 1000 м средняя 
[Sc|Ac und]
+14.4 -3.8 28 +15  1007.4  0.3  753  289    +15.2       
18 31.01.15 120 (ЮВ) 10 км    10/0 средняя, верхняя 
[Ac trans|Cc]
+12.2 -3.3 34 +13  1008  0.6  753  291           
21 31.01.15 120 (ЮВ) 10 км    10/0 средняя, верхняя 
[Ac trans|Cs]
+12.2 -2.3 36 +13  1007.9  -0.2  753  291           
00 01.02.15 160 (Ю) 10 км    10/5 600 м средняя 
[Sc|Ac und]
+14 -1.4 35 +15  1007.1  -0.7  753  289           
03 01.02.15 130 (ЮВ) 10 км    4/0 средняя 
[Ac trans]
+14.4 -2.1 32 +16  1006.8  -0.3  752  288  +11.5         
06 01.02.15 180 (Ю) 3{12}  10 км    10/8 600 м кучево-дожд., верхняя 
[Cb cap|Ci fib]
+16.3 -1.2 30 +17  1006.6  -0.2  752  286           
Время (UTC), дата Ветер
(°,м/с) 
Видим.   Явления Облачность Т
(°С)
Тd
(°С)
f(%) Тe
(°С)
Pmin
(гПа)
dP
(гПа)
Po
(мм)
O2
(г/м3)
Тmin Tmax R s Состояние
почвы